FW9486 Weather Reports


Display with metric or nautical units.
time (UTC)temp
F
wind
direction
speed
MPH
gust
MPH
rain 1hr
in
rain 24hr
in
rain mn
in
humidity
%
barometer
mb
20260831224549 83 284 3.0 6.0 0.00 0.00 0.00 9 1010.6
20260831223044 83 319 2.0 7.0 0.00 0.00 0.00 8 1010.8
20260831221551 83 298 3.0 6.0 0.00 0.00 0.00 8 1010.9
20260831220048 83 0 2.0 6.0 0.00 0.00 0.00 9 1011.2
20260831214619 82 213 1.0 6.0 0.00 0.00 0.00 15 1011.4
20260831213045 82 141 3.0 9.0 0.00 0.00 0.00 17 1011.6
20260831211553 81 353 0.0 6.0 0.00 0.00 0.00 15 1011.7
20260831210049 80 340 1.0 9.0 0.00 0.00 0.00 16 1011.9
20260831204555 81 139 1.0 7.0 0.00 0.00 0.00 17 1012.1
20260831203047 79 147 4.0 15.0 0.00 0.00 0.00 20 1012.2
20260831201542 79 136 2.0 7.0 0.00 0.00 0.00 19 1012.3
20260831200051 78 135 3.0 9.0 0.00 0.00 0.00 19 1012.7
20260831194549 77 146 3.0 6.0 0.00 0.00 0.00 20 1012.9
20260831193042 76 148 3.0 6.0 0.00 0.00 0.00 21 1013.1
20260831191551 76 151 1.0 8.0 0.00 0.00 0.00 22 1013.2
20260831190110 75 156 1.0 5.0 0.00 0.00 0.00 25 1013.4
20260831184543 73 165 3.0 6.0 0.00 0.00 0.00 23 1013.7
20260831183058 71 0 2.0 5.0 0.00 0.00 0.00 30 1013.9
20260831181553 69 128 2.0 4.0 0.00 0.00 0.00 32 1014.2
20260831180046 68 148 1.0 5.0 0.00 0.00 0.00 34 1014.3
20260831174541 66 132 2.0 4.0 0.00 0.00 0.00 35 1014.5
20260831173048 65 102 1.0 4.0 0.00 0.00 0.00 37 1014.5
20260831171544 61 111 0.0 3.0 0.00 0.00 0.00 41 1014.6
20260831170041 60 155 1.0 3.0 0.00 0.00 0.00 42 1014.7
20260831164601 57 131 1.0 3.0 0.00 0.00 0.00 47 1014.8
20260831163044 55 109 0.0 3.0 0.00 0.00 0.00 49 1015.0
20260831161551 53 0 2.0 3.0 0.00 0.00 0.00 51 1014.9
20260831160049 51 106 1.0 3.0 0.00 0.00 0.00 54 1015.1
20260831154619 49 110 0.0 2.0 0.00 0.00 0.00 58 1015.3
20260831153044 47 0 0.0 2.0 0.00 0.00 0.00 61 1015.3
20260831151550 45 151 1.0 3.0 0.00 0.00 0.00 62 1015.3
20260831150049 45 131 1.0 2.0 0.00 0.00 0.00 65 1015.4
20260831144545 43 0 0.0 2.0 0.00 0.00 0.00 67 1015.5
20260831143046 43 0 0.0 0.0 0.00 0.00 0.00 65 1015.3
20260831141553 41 0 0.0 0.0 0.00 0.00 0.00 69 1015.3
20260831140047 37 0 0.0 0.0 0.00 0.00 0.00 73 1015.2
20260831134548 36 0 0.0 1.0 0.00 0.00 0.00 74 1015.1
20260831133056 36 0 0.0 1.0 0.00 0.00 0.00 76 1015.1
20260831131554 36 0 0.0 1.0 0.00 0.00 0.00 71 1015.0
20260831130055 36 0 0.0 1.0 0.00 0.00 0.00 74 1014.9
20260831124549 36 0 0.0 1.0 0.00 0.00 0.00 72 1014.8
20260831123052 38 0 0.0 1.0 0.00 0.00 0.00 67 1014.9
20260831121550 38 0 0.0 0.0 0.00 0.00 0.00 69 1014.7
20260831120058 38 0 0.0 0.0 0.00 0.00 0.00 70 1014.7
20260831114545 38 0 0.0 0.0 0.00 0.00 0.00 70 1015.0
20260831113109 39 0 0.0 1.0 0.00 0.00 0.00 70 1014.9
20260831111548 39 0 0.0 0.0 0.00 0.00 0.00 68 1014.9
20260831110048 38 0 0.0 0.0 0.00 0.00 0.00 68 1014.8
20260831104543 39 0 0.0 0.0 0.00 0.00 0.00 65 1014.8
20260831103049 41 0 0.0 0.0 0.00 0.00 0.00 61 1014.9
20260831101552 41 0 0.0 0.0 0.00 0.00 0.00 64 1014.9
20260831100047 41 0 0.0 1.0 0.00 0.00 0.00 64 1014.8
20260831094553 41 0 0.0 0.0 0.00 0.00 0.00 60 1014.9
20260831093043 42 0 0.0 1.0 0.00 0.00 0.00 61 1014.8
20260831091550 42 0 0.0 1.0 0.00 0.00 0.00 60 1014.9
20260831090048 43 0 0.0 0.0 0.00 0.00 0.00 59 1014.9
20260831084547 43 0 0.0 0.0 0.00 0.00 0.00 58 1014.9
20260831083045 44 0 0.0 0.0 0.00 0.00 0.00 57 1014.9
20260831081541 45 0 0.0 0.0 0.00 0.00 0.00 54 1014.8
20260831080050 45 0 0.0 0.0 0.00 0.00 0.00 54 1014.9
20260831074545 45 0 0.0 0.0 0.00 0.00 0.00 55 1015.0
20260831073051 46 0 0.0 0.0 0.00 0.00 0.00 54 1015.0
20260831071554 48 0 0.0 0.0 0.00 0.00 0.00 50 1015.0
20260831070051 48 0 0.0 1.0 0.00 0.00 0.00 51 1015.0
20260831064547 48 0 0.0 1.0 0.00 0.00 0.00 50 1015.0
20260831063052 49 0 0.0 0.0 0.00 0.00 0.00 49 1014.9
20260831061552 49 0 0.0 0.0 0.00 0.00 0.00 48 1015.0
20260831060054 49 18 0.0 1.0 0.00 0.00 0.00 47 1014.9
20260831054549 50 0 0.0 1.0 0.00 0.00 0.00 45 1015.0
20260831053045 52 0 0.0 1.0 0.00 0.00 0.00 41 1014.7
20260831051559 52 0 0.0 1.0 0.00 0.00 0.00 42 1014.7
20260831050056 52 0 0.0 0.0 0.00 0.00 0.00 42 1014.7
20260831044551 54 0 0.0 0.0 0.00 0.00 0.00 39 1014.7
20260831043043 56 0 0.0 0.0 0.00 0.00 0.00 37 1014.6
20260831041552 57 0 0.0 1.0 0.00 0.00 0.00 35 1014.5
20260831040053 58 0 0.0 3.0 0.00 0.00 0.00 35 1014.3
20260831034551 57 354 0.0 2.0 0.00 0.00 0.00 36 1014.3
20260831033051 58 11 0.0 1.0 0.00 0.00 0.00 35 1014.2
20260831031553 58 13 0.0 1.0 0.00 0.00 0.00 35 1014.1
20260831030050 60 79 0.0 2.0 0.00 0.00 0.00 32 1013.9
20260831024548 61 6 0.0 2.0 0.00 0.00 0.00 30 1013.7
20260831023044 62 353 0.0 2.0 0.00 0.00 0.00 30 1013.7
20260831021543 65 0 0.0 3.0 0.00 0.00 0.00 27 1013.5
20260831020055 66 316 1.0 4.0 0.00 0.00 0.00 27 1013.5
20260831014550 66 311 1.0 3.0 0.00 0.00 0.00 26 1013.7
20260831013103 67 288 1.0 8.0 0.00 0.00 0.00 25 1013.6
20260831011546 68 314 1.0 6.0 0.00 0.00 0.00 25 1013.8
20260831010044 69 274 1.0 7.0 0.00 0.00 0.00 24 1013.8
20260831004548 70 261 4.0 8.0 0.00 0.00 0.00 23 1013.9
20260831003103 71 297 3.0 7.0 0.00 0.00 0.00 23 1013.9
20260831001549 71 267 3.0 7.0 0.00 0.00 0.00 23 1013.8
20260831000049 71 295 2.0 6.0 0.00 0.00 0.00 22 1013.9
20260830234548 71 96 1.0 10.0 0.00 0.00 0.00 22 1014.0
20260830233053 71 295 2.0 8.0 0.00 0.00 0.00 22 1014.1
20260830231549 70 43 2.0 9.0 0.00 0.00 0.00 23 1014.1
20260830230048 70 275 3.0 8.0 0.00 0.00 0.00 21 1014.2